Hourly Data Report for September 30, 2017

All times are specified in Local Standard Time (LST). Add 1 hour to adjust for Daylight Saving Time where and when it is observed.

SUMMERSIDE
PRINCE EDWARD ISLAND

46°26'28.000" N
63°50'17.000" W
12.20 m
8300596
71702
WSD

Download Data

Hourly Data (September 2017)
Hourly Data Report for September 30, 2017
Temp Definition
°C
Dew Point Temp Definition
°C
Rel Hum Definition
%
Wind Dir Definition
10's deg

Wind Spd Definition
km/h
Visibility Definition
km
Stn Press Definition
kPa
Hmdx Definition


Wind Chill Definition


Weather Definition


TIME
00:00 9.9 4.5 69 1 26   101.57     LegendNANA
01:00 8.1 4.8 80 34 20   101.65     LegendNANA
02:00 7.0 4.5 84 32 15   101.68     LegendNANA
03:00 6.2 4.0 86 33 12   101.73     LegendNANA
04:00 6.1 4.2 88 32 9   101.76     LegendNANA
05:00 5.1 3.5 89 32 10   101.83     LegendNANA
06:00 5.0 3.3 89 32 10   101.90     LegendNANA
07:00 6.6 4.4 86 33 12   101.98     LegendNANA
08:00 7.6 5.0 83 33 15   102.05     LegendNANA
09:00 9.9 5.4 74 34 16   102.12     LegendNANA
10:00 10.3 3.7 63 36 20   102.16     LegendNANA
11:00 10.9 4.2 63 1 20   102.21     LegendNANA
12:00 10.6 3.6 62 2 20   102.24     LegendNANA
13:00 10.8 2.6 57 36 16   102.22     LegendNANA
14:00 10.6 3.2 60 2 18   102.22     LegendNANA
15:00 10.2 2.8 60 2 17   102.23     LegendNANA
16:00 10.2 3.1 62 1 17   102.21     LegendNANA
17:00 9.4 2.9 64 2 9   102.22     LegendNANA
18:00 7.0 2.6 73 2 9   102.22     LegendNANA
19:00 5.7 2.6 81 35 3   102.27     LegendNANA
20:00 4.5 2.0 84 24 2   102.30     LegendNANA
21:00 2.9 1.2 88 29 2   102.28     LegendNANA
22:00 2.8 1.5 92 17 8   102.24     LegendNANA
23:00 2.5 1.0 89 15 7   102.21     LegendNANA

Notes on Data Quality.

Legend

  • E = Estimated
  • M = Missing
  • NA = Not Available
  • ‡ = Partner data that is not subject to review by the National Climate Archives
Date modified: